GW6796 Weather Reports


Display with metric or nautical units.
time (UTC)temp
F
wind
direction
speed
MPH
gust
MPH
rain 1hr
in
rain 24hr
in
rain mn
in
humidity
%
barometer
mb
20260504174007 49 265 11.0 21.0 0.00 0.00 0.00 47 1015.5
20260504173506 48 332 12.0 21.0 0.00 0.00 0.00 48 1015.7
20260504173016 47 266 12.0 20.0 0.00 0.00 0.00 50 1015.8
20260504172506 48 274 9.0 18.0 0.00 0.00 0.00 49 1015.8
20260504172010 48 245 13.0 18.0 0.00 0.00 0.00 49 1016.0
20260504171535 48 261 12.0 22.0 0.00 0.00 0.00 48 1015.9
20260504171008 48 258 11.0 22.0 0.00 0.00 0.00 51 1015.7
20260504170511 48 243 14.0 18.0 0.00 0.00 0.00 48 1015.8
20260504151007 43 248 2.0 6.0 0.00 0.00 0.00 50 1016.6
20260504150508 43 285 2.0 5.0 0.00 0.00 0.00 49 1016.6
20260504141006 38 236 1.0 6.0 0.00 0.00 0.00 56 1016.6
20260504140508 38 70 3.0 6.0 0.00 0.00 0.00 53 1016.6
20260504130507 34 69 1.0 2.0 0.00 0.00 0.00 58 1016.6
20260504110504 32 232 2.0 4.0 0.00 0.00 0.00 58 1016.0
20260504100506 35 246 1.0 2.0 0.00 0.00 0.00 52 1015.7
20260504082005 37 173 0.0 0.0 0.00 0.00 0.00 52 1016.3
20260504081522 37 173 0.0 0.0 0.00 0.00 0.00 52 1016.4
20260504081007 37 173 0.0 0.0 0.00 0.00 0.00 52 1016.5
20260504080507 37 173 0.0 1.0 0.00 0.00 0.00 53 1016.6
20260504050509 43 96 6.0 7.0 0.00 0.00 0.00 46 1017.7
20260504045503 44 113 2.0 5.0 0.00 0.00 0.00 40 1017.6
20260504045003 45 122 2.0 5.0 0.00 0.00 0.00 40 1017.7
20260504044521 46 169 0.0 2.0 0.00 0.00 0.00 30 1017.8
20260504044006 46 291 1.0 2.0 0.00 0.00 0.00 26 1017.8
20260504043504 46 222 0.0 2.0 0.00 0.00 0.00 26 1017.8
20260504043017 46 226 0.0 2.0 0.00 0.00 0.00 26 1017.8
20260504042508 46 235 0.0 2.0 0.00 0.00 0.00 25 1017.8
20260504042005 46 189 0.0 3.0 0.00 0.00 0.00 26 1017.8
20260504041520 47 221 0.0 3.0 0.00 0.00 0.00 25 1017.8
20260504041008 47 280 1.0 5.0 0.00 0.00 0.00 24 1017.8
20260504040511 47 257 2.0 5.0 0.00 0.00 0.00 24 1017.8
20260504040025 47 255 3.0 5.0 0.00 0.00 0.00 23 1017.9
20260504035509 47 276 3.0 4.0 0.00 0.00 0.00 24 1017.9
20260504035011 47 285 2.0 4.0 0.00 0.00 0.00 24 1017.8
20260504034528 47 269 1.0 4.0 0.00 0.00 0.00 24 1017.8
20260504034004 47 267 3.0 7.0 0.00 0.00 0.00 24 1017.9
20260504033503 48 259 4.0 7.0 0.00 0.00 0.00 23 1017.8
20260504033013 48 262 3.0 6.0 0.00 0.00 0.00 23 1017.8
20260504032507 48 248 4.0 5.0 0.00 0.00 0.00 24 1017.8
20260504032010 48 250 2.0 7.0 0.00 0.00 0.00 24 1017.8
20260504031518 48 264 2.0 7.0 0.00 0.00 0.00 23 1017.8
20260504031006 48 250 4.0 7.0 0.00 0.00 0.00 23 1017.7
20260504030507 48 335 4.0 8.0 0.00 0.00 0.00 23 1017.7
20260504030035 48 295 4.0 9.0 0.00 0.00 0.00 23 1017.7
20260504025507 48 257 5.0 9.0 0.00 0.00 0.00 24 1017.6
20260504025009 49 280 5.0 11.0 0.00 0.00 0.00 25 1017.6
20260504024523 48 300 7.0 17.0 0.00 0.00 0.00 25 1017.6
20260504024007 48 262 7.0 17.0 0.00 0.00 0.00 25 1017.6
20260504023506 48 285 4.0 9.0 0.00 0.00 0.00 28 1017.6
20260504023026 48 249 4.0 13.0 0.00 0.00 0.00 31 1017.6
20260504022505 48 270 5.0 14.0 0.00 0.00 0.00 31 1017.5
20260504022007 48 255 10.0 17.0 0.00 0.00 0.00 29 1017.6
20260504021512 49 279 9.0 17.0 0.00 0.00 0.00 33 1017.5
20260504021006 48 232 6.0 13.0 0.00 0.00 0.00 33 1017.6
20260504020506 49 189 7.0 14.0 0.00 0.00 0.00 34 1017.6
20260504020019 50 233 10.0 14.0 0.00 0.00 0.00 25 1017.6
20260504015507 50 284 9.0 20.0 0.00 0.00 0.00 25 1017.5
20260504015007 50 274 13.0 20.0 0.00 0.00 0.00 25 1017.5
20260504014519 50 248 10.0 18.0 0.00 0.00 0.00 26 1017.5
20260504014011 50 271 10.0 16.0 0.00 0.00 0.00 25 1017.5
20260504013508 50 244 11.0 17.0 0.00 0.00 0.00 25 1017.5
20260504013022 50 277 10.0 24.0 0.00 0.00 0.00 25 1017.5
20260504012512 50 225 8.0 24.0 0.00 0.00 0.00 26 1017.5
20260504012017 50 274 11.0 21.0 0.00 0.00 0.00 27 1017.5
20260504011528 51 278 11.0 19.0 0.00 0.00 0.00 27 1017.6
20260504011005 50 266 11.0 19.0 0.00 0.00 0.00 31 1017.7
20260504010503 50 265 10.0 17.0 0.00 0.00 0.00 30 1017.7
20260504010014 50 261 9.0 13.0 0.00 0.00 0.00 31 1017.6
20260504005507 50 270 6.0 15.0 0.00 0.00 0.00 31 1017.6
20260504005008 50 276 9.0 15.0 0.00 0.00 0.00 32 1017.8
20260504004522 50 267 9.0 17.0 0.00 0.00 0.00 31 1017.8
20260504004011 50 259 10.0 17.0 0.00 0.00 0.00 31 1017.8
20260504003509 50 244 10.0 15.0 0.00 0.00 0.00 32 1017.8
20260504003021 50 243 8.0 12.0 0.00 0.00 0.00 33 1017.9
20260504002507 50 231 8.0 14.0 0.00 0.00 0.00 32 1018.0
20260504002007 50 280 9.0 14.0 0.00 0.00 0.00 33 1018.1
20260504001526 50 253 9.0 22.0 0.00 0.00 0.00 32 1018.1
20260504001013 50 255 15.0 22.0 0.00 0.00 0.00 31 1018.2
20260504000510 50 252 10.0 15.0 0.00 0.00 0.00 32 1018.3
20260504000027 50 265 8.0 17.0 0.00 0.00 0.00 33 1018.2
20260503235507 50 250 10.0 19.0 0.00 0.00 0.00 33 1018.2
20260503235004 50 266 12.0 27.0 0.00 0.00 0.00 33 1018.4
20260503234526 49 291 14.0 27.0 0.00 0.00 0.00 36 1018.5
20260503234008 49 259 17.0 23.0 0.00 0.00 0.00 35 1018.4
20260503233509 48 273 10.0 30.0 0.00 0.00 0.00 38 1018.6
20260503233018 48 262 17.0 35.0 0.00 0.00 0.00 36 1018.7
20260503232508 49 284 22.0 35.0 0.00 0.00 0.00 38 1018.7
20260503232007 49 270 12.0 19.0 0.00 0.00 0.00 36 1018.8
20260503231521 49 259 14.0 19.0 0.00 0.00 0.00 35 1018.8
20260503231015 49 253 9.0 16.0 0.00 0.00 0.00 37 1018.7
20260503230512 48 277 12.0 16.0 0.00 0.00 0.00 38 1018.6
20260503230029 48 268 8.0 17.0 0.00 0.00 0.00 41 1018.8
20260503225507 47 207 10.0 22.0 0.00 0.00 0.00 44 1018.7
20260503225012 46 228 15.0 26.0 0.00 0.00 0.00 45 1018.8
20260503224528 47 208 14.0 29.0 0.00 0.00 0.00 45 1018.9
20260503224008 47 240 21.0 35.0 0.00 0.00 0.00 43 1018.8
20260503223505 47 260 19.0 35.0 0.00 0.00 0.00 41 1018.8
20260503223016 48 241 24.0 36.0 0.00 0.00 0.00 39 1018.7
20260503222508 49 260 23.0 37.0 0.00 0.00 0.00 34 1018.6
20260503222008 51 255 25.0 37.0 0.00 0.00 0.00 30 1018.2
20260503221523 52 269 21.0 32.0 0.00 0.00 0.00 26 1018.2
20260503221015 53 253 15.0 24.0 0.00 0.00 0.00 27 1018.2
20260503220508 54 258 12.0 23.0 0.00 0.00 0.00 29 1018.2
20260503220039 54 260 15.0 23.0 0.00 0.00 0.00 28 1018.2
20260503215509 54 247 18.0 26.0 0.00 0.00 0.00 26 1018.2
20260503215007 55 255 11.0 28.0 0.00 0.00 0.00 25 1018.2
20260503214529 55 269 11.0 28.0 0.00 0.00 0.00 27 1018.4
20260503214009 55 249 16.0 30.0 0.00 0.00 0.00 25 1018.4
20260503213509 54 242 15.0 30.0 0.00 0.00 0.00 26 1018.4
20260503213026 54 267 19.0 31.0 0.00 0.00 0.00 26 1018.7
20260503212509 54 246 21.0 31.0 0.00 0.00 0.00 25 1018.8
20260503212008 53 275 13.0 31.0 0.00 0.00 0.00 26 1018.8
20260503211516 53 245 12.0 23.0 0.00 0.00 0.00 29 1018.7
20260503211008 52 255 10.0 25.0 0.00 0.00 0.00 27 1018.8
20260503210508 52 241 18.0 28.0 0.00 0.00 0.00 28 1018.9
20260503210022 53 239 19.0 28.0 0.00 0.00 0.00 27 1018.8
20260503205508 55 240 14.0 26.0 0.00 0.00 0.00 27 1018.9
20260503205009 53 264 14.0 24.0 0.00 0.00 0.00 27 1019.1
20260503204526 54 245 14.0 25.0 0.00 0.00 0.00 26 1019.3
20260503204014 55 262 12.0 25.0 0.00 0.00 0.00 27 1019.3
20260503203509 54 245 7.0 24.0 0.00 0.00 0.00 27 1019.2
20260503203031 53 227 12.0 26.0 0.00 0.00 0.00 29 1019.3
20260503202511 52 266 12.0 26.0 0.00 0.00 0.00 30 1019.5
20260503202013 52 280 9.0 23.0 0.00 0.00 0.00 28 1019.6
20260503201526 51 277 17.0 26.0 0.00 0.00 0.00 28 1019.6
20260503201011 52 243 17.0 26.0 0.00 0.00 0.00 27 1019.6
20260503200510 54 261 13.0 28.0 0.00 0.00 0.00 28 1019.5
20260503200020 52 249 19.0 28.0 0.00 0.00 0.00 26 1019.6
20260503195510 53 244 11.0 20.0 0.00 0.00 0.00 26 1019.5
20260503195009 53 257 7.0 24.0 0.00 0.00 0.00 26 1019.5
20260503194524 52 262 13.0 24.0 0.00 0.00 0.00 25 1019.6
20260503194004 53 253 20.0 24.0 0.00 0.00 0.00 25 1019.5
20260503193506 53 344 14.0 23.0 0.00 0.00 0.00 23 1019.7
20260503193008 53 302 7.0 22.0 0.00 0.00 0.00 25 1019.6
20260503192503 54 217 10.0 17.0 0.00 0.00 0.00 22 1019.7
20260503192006 53 276 10.0 17.0 0.00 0.00 0.00 23 1019.8
20260503191514 53 276 10.0 28.0 0.00 0.00 0.00 23 1019.9
20260503191009 52 300 13.0 28.0 0.00 0.00 0.00 23 1020.1
20260503190507 52 283 19.0 28.0 0.00 0.00 0.00 25 1020.0
20260503190016 54 261 9.0 23.0 0.00 0.00 0.00 25 1020.0
20260503185507 54 271 12.0 23.0 0.00 0.00 0.00 28 1020.1
20260503185007 53 294 14.0 27.0 0.00 0.00 0.00 25 1020.1
20260503184520 52 277 19.0 27.0 0.00 0.00 0.00 25 1020.1
20260503184009 53 264 10.0 21.0 0.00 0.00 0.00 25 1020.4
20260503183507 53 258 8.0 22.0 0.00 0.00 0.00 27 1020.5
20260503183004 51 268 14.0 22.0 0.00 0.00 0.00 25 1020.6
20260503182503 52 263 9.0 24.0 0.00 0.00 0.00 24 1020.7
20260503182003 52 268 17.0 24.0 0.00 0.00 0.00 24 1020.8
20260503181507 52 319 10.0 20.0 0.00 0.00 0.00 24 1020.8
20260503181005 51 257 13.0 21.0 0.00 0.00 0.00 25 1020.9
20260503180503 52 256 8.0 21.0 0.00 0.00 0.00 26 1021.1
20260503180017 53 247 16.0 21.0 0.00 0.00 0.00 27 1021.1
20260503175509 51 275 14.0 21.0 0.00 0.00 0.00 26 1021.1
20260503175007 53 267 10.0 20.0 0.00 0.00 0.00 24 1021.3
20260503174515 52 275 10.0 25.0 0.00 0.00 0.00 27 1021.4